Weather History for CYCG - July, 2013

Change the Weather History Date:

Monday, July 15, 2013

  Actual Average Record
Temperature  
Mean Temperature 68 °F -  
Max Temperature 79 °F 82 °F 96 °F (1996)
Min Temperature 57 °F 54 °F 48 °F (1999)
Cooling Degree Days 3    
Growing Degree Days 18 (Base 50)    
Moisture  
Dew Point 48 °F    
Average Humidity 46    
Maximum Humidity 99    
Minimum Humidity 29    
Precipitation  
Precipitation 0.00 in 0.06 in - ()
Sea Level Pressure  
Sea Level Pressure 30.01 in    
Wind  
Wind Speed 9 mph ()    
Max Wind Speed 16 mph    
Max Gust Speed 23 mph    
Visibility 15.0 miles    
Events      
Averages and records for this station are not official NWS values.
T = Trace of Precipitation, MM = Missing Value Source: Averaged Metar Reports

Daily Weather History Graph

Daily Weather History Graph

Search for Another Location

Airport or City:

Trip Planner

Search our weather history database for the weather conditions in past years. The results will help you decide how hot, cold, wet, or windy it might be!

Date:

Astronomy

Jul. 15, 2013 Rise Set
Actual Time 5:01 AM PDT 8:50 PM PDT
Civil Twilight 4:20 AM PDT 9:31 PM PDT
Nautical Twilight 3:24 AM PDT 10:27 PM PDT
Astronomical Twilight 1:56 AM PDT 11:53 PM PDT
Moon 1:12 PM PDT (7/15) 11:51 PM PDT (7/15)
Length of Visible Light 17h 11m
Length of Day
15h 49m
Waxing Crescent, 46% of the Moon is Illuminated
Jul 15
Waxing Crescent
Jul 15
First Quarter
Jul 22
Full
Jul 29
Last Quarter
Aug 6
New

Hourly Weather History & Observations

Time (PDT) Temp. Dew Point Humidity Pressure Visibility Wind Dir Wind Speed Gust Speed Precip Events Conditions
5:00 AM 64 °F 64 °F 99% 30.13 in - WSW 4.6 mph - -  
6:00 AM 60.8 °F 42.8 °F 52% 29.99 in 15.0 mi NNW 9.2 mph - N/A   Clear
7:00 AM 60.8 °F 42.8 °F 52% 30.00 in 15.0 mi North 13.8 mph 21.9 mph N/A   Clear
8:00 AM 64.4 °F 42.8 °F 45% 30.01 in 15.0 mi North 9.2 mph 19.6 mph N/A   Clear
9:00 AM 66.2 °F 42.8 °F 43% 30.01 in 15.0 mi NNW 15.0 mph 21.9 mph N/A   Partly Cloudy
10:00 AM 69.8 °F 42.8 °F 38% 30.02 in 15.0 mi North 15.0 mph 21.9 mph N/A   Partly Cloudy
11:00 AM 78 °F 64 °F 54% 30.08 in - West 5.8 mph - -  
11:00 AM 71.6 °F 42.8 °F 35% 30.02 in 15.0 mi North 16.1 mph - N/A   Partly Cloudy
12:00 PM 73.4 °F 44.6 °F 36% 30.01 in 15.0 mi North 13.8 mph - N/A   Partly Cloudy
1:00 PM 77.0 °F 44.6 °F 32% 30.01 in 15.0 mi WNW 6.9 mph - N/A   Partly Cloudy
2:00 PM 77.0 °F 44.6 °F 32% 30.00 in 15.0 mi North 11.5 mph - N/A   Partly Cloudy
3:00 PM 77.0 °F 42.8 °F 29% 29.99 in 15.0 mi North 15.0 mph - N/A   Partly Cloudy
4:00 PM 77.0 °F 44.6 °F 32% 29.99 in 15.0 mi North 13.8 mph 20.7 mph N/A   Partly Cloudy
5:00 PM 67 °F 62 °F 78% 30.05 in - WSW 4.6 mph - -  
5:00 PM 77.0 °F 44.6 °F 32% 29.97 in 15.0 mi North 12.7 mph 20.7 mph N/A   Partly Cloudy
6:00 PM 75.2 °F 44.6 °F 34% 29.97 in 15.0 mi North 12.7 mph 23.0 mph N/A   Clear
7:00 PM 75.2 °F 44.6 °F 34% 29.97 in 15.0 mi North 15.0 mph - N/A   Clear
8:00 PM 71.6 °F 46.4 °F 41% 29.98 in 15.0 mi North 6.9 mph - N/A   Clear
9:00 PM 68.0 °F 44.6 °F 43% 30.00 in 15.0 mi NNW 2.3 mph - N/A   Clear
11:00 PM 62 °F 59 °F 87% 30.02 in - West 3.5 mph - -